| time (UTC) | temp C | wind direction | speed KPH | gust KPH | rain 1hr cm | rain 24hr cm | rain mn cm | humidity % | barometer mb |
| 20260502194604 | 1 | 229 | 0.0 | 0.0 | 0.00 | 0.00 | 0.00 | 85 | 1024.7 |
| 20260502191558 | 1 | 229 | 0.0 | 0.0 | 0.00 | 0.00 | 0.00 | 82 | 1024.5 |
| 20260502184603 | 3 | 229 | 0.0 | 0.0 | 0.00 | 0.00 | 0.00 | 78 | 1024.3 |
| 20260502181556 | 5 | 227 | 0.0 | 0.0 | 0.00 | 0.00 | 0.00 | 75 | 1024.3 |
| 20260502180106 | 6 | 226 | 0.0 | 3.2 | 0.00 | 0.00 | 0.00 | 74 | 1024.3 |
| 20260502161601 | 10 | 233 | 6.4 | 12.9 | 0.00 | 0.00 | 0.00 | 61 | 1024.8 |
| 20260502151553 | 11 | 86 | 4.8 | 14.5 | 0.00 | 0.00 | 0.00 | 59 | 1025.5 |
| 20260502123059 | 11 | 360 | 3.2 | 14.5 | 0.00 | 0.00 | 0.00 | 59 | 1026.7 |
| 20260502120104 | 11 | 179 | 3.2 | 12.9 | 0.00 | 0.00 | 0.00 | 59 | 1026.9 |
| 20260502113058 | 11 | 27 | 1.6 | 16.1 | 0.00 | 0.00 | 0.00 | 60 | 1027.1 |
| 20260502110059 | 11 | 269 | 3.2 | 9.7 | 0.00 | 0.00 | 0.00 | 59 | 1027.4 |
| 20260502103105 | 11 | 172 | 3.2 | 11.3 | 0.00 | 0.00 | 0.00 | 58 | 1027.8 |
| 20260502071349 | 7 | 35 | 3.2 | 8.0 | 0.00 | 0.00 | 0.00 | 66 | 1029.1 |
| 20260502063039 | 5 | 305 | 1.6 | 6.4 | 0.00 | 0.00 | 0.00 | 74 | 1028.9 |
| 20260502061542 | 0 | 209 | 0.0 | 0.0 | 0.00 | 0.00 | 0.00 | 90 | 1028.9 |
| 20260502054534 | -1 | 207 | 0.0 | 0.0 | 0.00 | 0.00 | 0.00 | 84 | 1028.7 |
| 20260502051545 | -1 | 205 | 0.0 | 0.0 | 0.00 | 0.00 | 0.00 | 81 | 1028.7 |
| 20260502044536 | 0 | 206 | 0.0 | 0.0 | 0.00 | 0.00 | 0.00 | 78 | 1028.6 |
| 20260502043029 | 1 | 206 | 0.0 | 6.4 | 0.00 | 0.00 | 0.00 | 77 | 1028.6 |
| 20260502040043 | 1 | 206 | 3.2 | 8.0 | 0.00 | 0.00 | 0.00 | 80 | 1028.7 |
| 20260502033041 | 0 | 205 | 3.2 | 6.4 | 0.00 | 0.00 | 0.00 | 83 | 1028.6 |
| 20260502030038 | -2 | 205 | 0.0 | 1.6 | 0.00 | 0.00 | 0.00 | 86 | 1028.5 |
| 20260502024538 | -2 | 206 | 0.0 | 0.0 | 0.00 | 0.00 | 0.00 | 83 | 1028.5 |
| 20260502021535 | 0 | 206 | 0.0 | 0.0 | 0.00 | 0.00 | 0.00 | 80 | 1028.6 |
| 20260502020035 | 0 | 205 | 0.0 | 0.0 | 0.00 | 0.00 | 0.00 | 79 | 1028.6 |
| 20260502014522 | 0 | 209 | 0.0 | 1.6 | 0.00 | 0.00 | 0.00 | 79 | 1028.7 |
| 20260502011536 | 1 | 211 | 3.2 | 6.4 | 0.00 | 0.00 | 0.00 | 80 | 1028.9 |
| 20260502010048 | 0 | 207 | 1.6 | 6.4 | 0.00 | 0.00 | 0.00 | 84 | 1028.8 |
| 20260502004539 | 0 | 208 | 0.0 | 0.0 | 0.00 | 0.00 | 0.00 | 81 | 1029.0 |
| 20260502003028 | 0 | 207 | 0.0 | 1.6 | 0.00 | 0.00 | 0.00 | 80 | 1029.1 |
| 20260502000035 | 2 | 211 | 1.6 | 8.0 | 0.00 | 0.00 | 0.00 | 76 | 1029.2 |
| 20260501233037 | 2 | 146 | 3.2 | 8.0 | 0.00 | 0.00 | 0.00 | 76 | 1029.3 |
| 20260501231536 | 2 | 88 | 1.6 | 9.7 | 0.00 | 0.00 | 0.00 | 78 | 1029.2 |
| 20260501224554 | 0 | 181 | 1.6 | 6.4 | 0.00 | 0.00 | 0.00 | 90 | 1029.2 |
| 20260501223035 | -1 | 263 | 0.0 | 0.0 | 0.00 | 0.00 | 0.00 | 89 | 1029.0 |
| 20260501220101 | -1 | 264 | 0.0 | 0.0 | 0.00 | 0.00 | 0.00 | 91 | 1028.8 |
| 20260501213037 | -1 | 264 | 0.0 | 0.0 | 0.00 | 0.00 | 0.00 | 89 | 1028.8 |
| 20260501210039 | -1 | 264 | 0.0 | 0.0 | 0.00 | 0.00 | 0.00 | 89 | 1028.8 |
| 20260501204534 | -1 | 265 | 0.0 | 0.0 | 0.00 | 0.00 | 0.00 | 87 | 1028.6 |
| 20260501203032 | -1 | 264 | 0.0 | 0.0 | 0.00 | 0.00 | 0.00 | 87 | 1028.5 |